STARLINK-1444 (45661 NORAD) Tracking and Keplerian Element Data

This shows tracking and keplerian element data for the satellite.

Feedback or suggestion? Click here.




ElementValue
Catalog45661
NameSTARLINK-1444
Epoch Orbit566
Epoch Day186.50001157
Epoch Year2020
RAAN20.4792
Inclination52.9983
Eccentricity0.0001259
Argument of Perigee66.034
Mean Anonmoly1.6291
Mean Motion15.44893012
Decay Rate-0.01075696
L11 45661U 20035E 20186.50001157 -.01075696 00000-0 -24893-1 0 9991
L22 45661 52.9983 20.4792 0001259 66.0340 1.6291 15.44893012 5663

Live tracking and technical data element details for STARLINK-1444 (NORAD 45661). STARLINK-1444 can be tracked NOW for your location showing map with azimuth and elevation plus other details from your city location.

Track the satellite on the map from your city or location and see movement details for azimuth, elevation, latitude, longitude, range, height, and movement on the map or in text.







IsCatalogInMostPopularTable: catalog: 45661, numindb: 5
Update: records affected: 1



GetName: 45661 STARLINK-1444

Hit Count: updated at: Sun, 05 Jul 2020 16:04:57 GMT